Flag for U.S.A. Weather past 2 weeks in Independence, Missouri, U.S.A.

31 °F

Ice fog.

Feels Like: 22 °F
Forecast: 30 / 35 °F
Wind: 12 mph from North

Location: Lee's Summit Municipal Airport

Current Time: Nov 28, 2015 at 5:28:33 AM

Latest Report: Nov 28, 2015 at 4:53 AM

Visibility: 5 mi

Pressure: 30.42 "Hg

Humidity: 96%

Dew point: 30 °F

Location of IndependenceLocation

Historic Weather in Independence — Graph


Independence temperature yesterday

Maximum temperature yesterday: 34 °F (at 12:53 AM)
Minimum temperature yesterday: 31 °F (at 8:53 PM)
Average temperature yesterday: 32 °F

Past Weeks' High & Low Weather Summary

High68 °F (Nov 14, 1:53 PM)97% (Nov 26, 4:53 PM)30.45 "Hg (Nov 26, 4:53 PM)
Low27 °F (Nov 22, 6:53 AM)22% (Nov 14, 1:53 PM)29.36 "Hg (Nov 18, 3:53 AM)
Average48 °F63%30.06 "Hg
* Reported Nov 13 3:53 AM — Nov 28 3:53 AM, Independence, Weather by CustomWeather, © 2015

Note: Actual official high and low records may vary slightly from our data, if they occured in-between our weather recording intervals... More about our weather records


Independence weather history for previous 24 hours

Time TempWeatherWind HumidityBarometerVisibility
3:53 AM
Sat, Nov 28
31 °FLight snow. Ice fog.10 mph96%30.42 "Hg3 mi
2:53 AM31 °FLow clouds.9 mph96%30.41 "Hg9 mi
1:53 AM31 °FLow clouds.15 mph92%30.39 "Hg9 mi
12:53 AM31 °FLow clouds.13 mph96%30.44 "Hg7 mi
11:53 PM
Fri, Nov 27
31 °FLow clouds.12 mph96%30.44 "Hg7 mi
10:53 PM31 °FIce fog.12 mph96%30.43 "Hg6 mi
9:53 PM31 °FLow clouds.10 mph96%30.45 "Hg10 mi
8:53 PM31 °FIce fog.13 mph96%30.45 "Hg4 mi
7:53 PM32 °FIce fog.14 mph92%30.45 "Hg4 mi
7:00 PM32 °FLight snow. Ice fog.14 mph92%30.42 "Hg2 mi
5:53 PM32 °FIce fog.12 mph96%30.44 "Hg6 mi
4:53 PM32 °FLight snow. Low clouds.15 mph92%30.43 "Hg8 mi
3:53 PM32 °FLight snow. Ice fog.16 mph96%30.41 "Hg4 mi
2:53 PM32 °FIce fog.16 mph92%30.39 "Hg6 mi
1:53 PM32 °FIce fog.15 mph92%30.42 "Hg5 mi
12:53 PM32 °FLight snow. Low clouds.15 mph92%30.42 "Hg9 mi
11:53 AM32 °FLight snow. Low clouds.21 mph92%30.43 "Hg8 mi
10:53 AM32 °FLight snow. Ice fog.14 mph92%30.45 "Hg5 mi
9:53 AM32 °FLight snow. Low clouds.13 mph92%30.44 "Hg7 mi
8:53 AM32 °FLight snow. Mostly cloudy.17 mph92%30.39 "Hg8 mi
7:53 AM32 °FLight snow. Low clouds.14 mph92%30.40 "Hg9 mi
6:53 AM32 °FLight snow. Ice fog.13 mph96%30.41 "Hg4 mi
5:53 AM32 °FIce fog.14 mph96%30.38 "Hg5 mi
Weather by CustomWeather, © 2015

See weather overviewHow to use our weather pages